Home > Products > State Listing > Illinois Data
Latest:
 RWRIL |
  [top]

000
ASUS43 KLOT 272303
RWRIL

ILLINOIS REGIONAL WEATHER ROUNDUP
NATIONAL WEATHER SERVICE CHICAGO/ROMEOVILLE IL
600 PM CDT FRI MAY 27 2016

NOTE: "FAIR" INDICATES FEW OR NO CLOUDS BELOW 12,000 FEET WITH NO
SIGNIFICANT WEATHER AND/OR OBSTRUCTIONS TO VISIBILITY.

* THESE STATIONS ARE NOT UNDER NWS QUALITY CONTROL. THEY ALSO MAY NOT
  REPORT WEATHER SUCH AS PRECIPITATION OR FOG.

ILZ001-002-007-009-015-016-024-280000-
NORTHWEST ILLINOIS

CITY           SKY/WX    TMP DP  RH WIND       PRES   REMARKS
MOLINE         MOSUNNY   79  67  66 S13       29.74F HX  81
STERLING*      PTSUNNY   77  68  73 VRB6      29.77F
$$

ILZ003-004-008-010-011-017-018-280000-
NORTH CENTRAL ILLINOIS

CITY           SKY/WX    TMP DP  RH WIND       PRES   REMARKS
ROCKFORD       PTSUNNY   77  67  71 SW9       29.81F
FREEPORT*      CLOUDY    75  67  77 S14       29.79F
ROCHELLE*      CLOUDY    78  67  69 S16       29.80F HX  80
$$

ILZ005-006-012>014-019>023-280000-
NORTHEAST ILLINOIS

CITY           SKY/WX    TMP DP  RH WIND       PRES   REMARKS
CHICAGO-OHARE  CLOUDY    79  65  62 S13       29.81F HX  81
CHICAGO-MIDWAY CLOUDY    77  68  73 S12       29.82F
AURORA         CLOUDY    75  68  78 S10       29.82F
LANSING*       CLOUDY    74  69  83 S8G17     29.84F
WAUKEGAN       CLOUDY    68  66  93 SE8       29.83F
DUPAGE AIRPORT RAIN      75  68  78 SW10      29.82F
WHEELING       PTSUNNY   74  67  78 SW3       29.83F
NORTHERLY ISL    N/A     69  66  90 SE9         N/A
NORTHERLY ISL    N/A     69  66  90 SE9         N/A
$$

LMZ740>746-280000-
SOUTHERN LAKE MICHIGAN

STATION/POSITION SKY/WX   TEMP    WIND        PRES    VSBY  WAVE
                          AIR SEA DIR/SP/G                  HT/PER
                          (F)     (DEG/KT/KT) (MB)    (MI)  (FT/S)
SOUTHERN BUOY              57 51  100/ 10/ 12 1010.3          0
WILMETTE HARBOR            61 59  140/ 10/ 12   N/A           1/ 2
HARRISON CRIB              70     150/ 13/ 14   N/A
BURNHAM HARBOR             71     150/ 10/ 12   N/A
CALUMET HARBOR             76                 1009.9F
BURNS HARBOR               72     180/  8/ 14 1011.9S
MICHIGAN CITY              70     190/ 12/ 13   N/A
MICHIGAN CITY 6N           66 59  210/ 12/ 17   N/A           1/ 2
ST. JOSEPH                 73 63  180/ 12/ 23   N/A           1/ 2
$$

ILZ025>027-034>036-040-047-049-050-058-095>099-280000-
WEST-CENTRAL ILLINOIS

CITY           SKY/WX    TMP DP  RH WIND       PRES   REMARKS
QUINCY         PTSUNNY   78  68  71 SE13      29.74F HX  80
MACOMB*        MOSUNNY   77  69  74 S14       29.78F
PITTSFIELD*    CLOUDY    77  71  83 SE10      29.78F
$$

ILZ028>032-037-038-041>044-048-051>054-059>061-280000-
CENTRAL ILLINOIS

CITY           SKY/WX    TMP DP  RH WIND       PRES   REMARKS
BLOOMINGTON    PTSUNNY   77  69  76 S16       29.84F
DECATUR        HVY RAIN  69  65  86 S13G23    29.85S FOG
PEORIA         PTSUNNY   78  67  68 S15       29.79F HX  80
SPRINGFIELD    CLOUDY    77  68  73 S12       29.81F
TAYLORVILLE    NOT AVBL
$$

ILZ033-039-045-046-055>057-062-063-280000-
EAST-CENTRAL ILLINOIS

CITY           SKY/WX    TMP DP  RH WIND       PRES   REMARKS
CHAMPAIGN      RAIN      71  67  87 S14       29.87S FOG
MATTOON        PTSUNNY   75  67  76 S12       29.87R
$$

ILZ079-100>102-280000-
SOUTHWEST ILLINOIS

CITY           SKY/WX    TMP DP  RH WIND       PRES   REMARKS
ALTON          LGT RAIN  73  68  83 S18       29.82S
BELLEVILLE     LGT RAIN  72  72 100 E6        29.82S
CAHOKIA*       LGT RAIN  74  70  87 S12       29.80F
SPARTA*        DRIZZLE   70  68  93 S10       29.86F
$$

ILZ064>066-069>071-074>076-080>082-084>086-088>090-092>094-280000-
SOUTH-CENTRAL ILLINOIS

CITY           SKY/WX    TMP DP  RH WIND       PRES   REMARKS
CARBONDALE     CLOUDY    71  67  87 S8        29.87F
MT. VERNON     CLOUDY    70  63  78 S7        29.90R
SALEM*         LGT RAIN  71  67  89 S14       29.88S
$$

ILZ067-068-072-073-078-083-087-091-280000-
SOUTHEAST ILLINOIS

CITY           SKY/WX    TMP DP  RH WIND       PRES   REMARKS
LAWRENCEVILLE  CLOUDY    83  64  52 S22G28    29.89S HX  84
FLORA*         CLOUDY    73  70  92 SE7       29.88F
HARRISBURG*    CLOUDY    78  70  75 SW7       29.89R HX  80
ROBINSON*      CLOUDY    78  65  64 S14       29.89S HX  80
$$

ABBREVIATIONS USED IN REMARKS
   TC - TEMPERATURE IN CELSIUS
  WCI - WIND CHILL INDEX
   HX - HEAT INDEX
  VSB - VISIBILITY
$$






000
ASUS43 KLOT 272259
RWRIL

ILLINOIS REGIONAL WEATHER ROUNDUP
NATIONAL WEATHER SERVICE CHICAGO/ROMEOVILLE IL
600 PM CDT FRI MAY 27 2016

NOTE: "FAIR" INDICATES FEW OR NO CLOUDS BELOW 12,000 FEET WITH NO
SIGNIFICANT WEATHER AND/OR OBSTRUCTIONS TO VISIBILITY.

* THESE STATIONS ARE NOT UNDER NWS QUALITY CONTROL. THEY ALSO MAY NOT
  REPORT WEATHER SUCH AS PRECIPITATION OR FOG.

ILZ001-002-007-009-015-016-024-280000-
NORTHWEST ILLINOIS

CITY           SKY/WX    TMP DP  RH WIND       PRES   REMARKS
MOLINE         NOT AVBL
$$

ILZ003-004-008-010-011-017-018-280000-
NORTH CENTRAL ILLINOIS

CITY           SKY/WX    TMP DP  RH WIND       PRES   REMARKS
ROCKFORD       NOT AVBL
$$

ILZ005-006-012>014-019>023-280000-
NORTHEAST ILLINOIS

CITY           SKY/WX    TMP DP  RH WIND       PRES   REMARKS
CHICAGO-OHARE  CLOUDY    79  65  62 S13       29.81F HX  81
CHICAGO-MIDWAY NOT AVBL
AURORA         NOT AVBL
WAUKEGAN       LGT RAIN  67  66  97 SE8       29.83F FOG
DUPAGE AIRPORT NOT AVBL
WHEELING       NOT AVBL
NORTHERLY ISL    N/A     69  66  90 SE9         N/A
NORTHERLY ISL    N/A     69  66  90 SE9         N/A
$$

LMZ740>746-280000-
SOUTHERN LAKE MICHIGAN

STATION/POSITION SKY/WX   TEMP    WIND        PRES    VSBY  WAVE
                          AIR SEA DIR/SP/G                  HT/PER
                          (F)     (DEG/KT/KT) (MB)    (MI)  (FT/S)
SOUTHERN BUOY              57 51  100/ 10/ 12 1010.3F         0
WILMETTE HARBOR            61 59  140/ 10/ 12   N/A           1/ 2
HARRISON CRIB              70     150/ 13/ 14   N/A
BURNHAM HARBOR             65     150/  5/ 10   N/A
CALUMET HARBOR             76                 1009.9F
BURNS HARBOR               72     180/  8/ 14 1011.9S
MICHIGAN CITY              70     190/ 12/ 13   N/A
MICHIGAN CITY 6N           66 59  210/ 12/ 17   N/A           1/ 2
ST. JOSEPH                 73 63  180/ 12/ 23   N/A           1/ 2
$$

ILZ025>027-034>036-040-047-049-050-058-095>099-280000-
WEST-CENTRAL ILLINOIS

CITY           SKY/WX    TMP DP  RH WIND       PRES   REMARKS
QUINCY         MOSUNNY   79  69  71 S12       29.74F HX  81
$$

ILZ028>032-037-038-041>044-048-051>054-059>061-280000-
CENTRAL ILLINOIS

CITY           SKY/WX    TMP DP  RH WIND       PRES   REMARKS
PEORIA         NOT AVBL
SPRINGFIELD    CLOUDY    77  68  73 S12       29.81F
TAYLORVILLE    NOT AVBL
$$

ILZ033-039-045-046-055>057-062-063-280000-
EAST-CENTRAL ILLINOIS

CITY           SKY/WX    TMP DP  RH WIND       PRES   REMARKS
CHAMPAIGN      CLOUDY    75  64  68 S15G30    29.86F THUNDER
$$

ILZ079-100>102-280000-
SOUTHWEST ILLINOIS

CITY           SKY/WX    TMP DP  RH WIND       PRES   REMARKS
ALTON          LGT RAIN  73  68  83 S18       29.82S
BELLEVILLE     LGT RAIN  72  72 100 E6        29.82S
CAHOKIA*       LGT RAIN  74  70  87 S12       29.81S
$$

ILZ064>066-069>071-074>076-080>082-084>086-088>090-092>094-280000-
SOUTH-CENTRAL ILLINOIS

CITY           SKY/WX    TMP DP  RH WIND       PRES   REMARKS
CARBONDALE     CLOUDY    71  67  87 S8        29.87F
$$

ILZ067-068-072-073-078-083-087-091-280000-
SOUTHEAST ILLINOIS

CITY           SKY/WX    TMP DP  RH WIND       PRES   REMARKS
$$

ABBREVIATIONS USED IN REMARKS
   TC - TEMPERATURE IN CELSIUS
  WCI - WIND CHILL INDEX
   HX - HEAT INDEX
  VSB - VISIBILITY
$$






000
ASUS43 KLOT 272204
RWRIL

ILLINOIS REGIONAL WEATHER ROUNDUP
NATIONAL WEATHER SERVICE CHICAGO/ROMEOVILLE IL
500 PM CDT FRI MAY 27 2016

NOTE: "FAIR" INDICATES FEW OR NO CLOUDS BELOW 12,000 FEET WITH NO
SIGNIFICANT WEATHER AND/OR OBSTRUCTIONS TO VISIBILITY.

* THESE STATIONS ARE NOT UNDER NWS QUALITY CONTROL. THEY ALSO MAY NOT
  REPORT WEATHER SUCH AS PRECIPITATION OR FOG.

ILZ001-002-007-009-015-016-024-272300-
NORTHWEST ILLINOIS

CITY           SKY/WX    TMP DP  RH WIND       PRES   REMARKS
MOLINE         CLOUDY    78  68  71 S10G22    29.76F HX  80
STERLING*      CLOUDY    75  69  81 S8        29.79F
$$

ILZ003-004-008-010-011-017-018-272300-
NORTH CENTRAL ILLINOIS

CITY           SKY/WX    TMP DP  RH WIND       PRES   REMARKS
ROCKFORD       CLOUDY    73  67  81 S12       29.82F
FREEPORT*      CLOUDY    72  67  83 S14G21    29.81F
ROCHELLE*      CLOUDY    76  67  74 S20       29.81F
$$

ILZ005-006-012>014-019>023-272300-
NORTHEAST ILLINOIS

CITY           SKY/WX    TMP DP  RH WIND       PRES   REMARKS
CHICAGO-OHARE  CLOUDY    77  67  71 S15       29.83S
CHICAGO-MIDWAY CLOUDY    80  65  59 S12G22    29.83F HX  82
AURORA         CLOUDY    76  68  76 S9        29.83F
LANSING*       CLOUDY    76  67  74 S12G21    29.86S
WAUKEGAN       LGT RAIN  66  64  93 SE9       29.84R FOG
DUPAGE AIRPORT CLOUDY    72  67  84 SW10      29.83S
WHEELING       CLOUDY    76  68  76 S14       29.84F
NORTHERLY ISL    N/A     68  62  81 SE3         N/A
NORTHERLY ISL    N/A     68  62  81 SE3         N/A
$$

LMZ740>746-272300-
SOUTHERN LAKE MICHIGAN

STATION/POSITION SKY/WX   TEMP    WIND        PRES    VSBY  WAVE
                          AIR SEA DIR/SP/G                  HT/PER
                          (F)     (DEG/KT/KT) (MB)    (MI)  (FT/S)
SOUTHERN BUOY              57 51  120/ 10/ 10 1011.1          1
WILMETTE HARBOR            64 59  180/ 14/ 21   N/A           1/ 2
HARRISON CRIB              69     180/  9/ 11   N/A
BURNHAM HARBOR             65     150/  5/ 10   N/A
CALUMET HARBOR             73     170/  7/ 12 1010.4R
BURNS HARBOR               73     200/ 17/ 24 1011.9R
MICHIGAN CITY              83     150/ 12/ 16   N/A
MICHIGAN CITY 6N           72 60  180/  8/ 10   N/A           1/ 2
ST. JOSEPH                 74 64  150/  8/ 12   N/A           1
$$

ILZ025>027-034>036-040-047-049-050-058-095>099-272300-
WEST-CENTRAL ILLINOIS

CITY           SKY/WX    TMP DP  RH WIND       PRES   REMARKS
QUINCY         PTSUNNY   79  68  69 S9        29.76F HX  81
MACOMB*        CLOUDY    77  69  76 S12       29.80F
PITTSFIELD*    PTSUNNY   77  71  81 SE13      29.80S
$$

ILZ028>032-037-038-041>044-048-051>054-059>061-272300-
CENTRAL ILLINOIS

CITY           SKY/WX    TMP DP  RH WIND       PRES   REMARKS
BLOOMINGTON    PTSUNNY   78  69  73 S18       29.85F HX  80
DECATUR        CLOUDY    77  67  71 S13       29.85F
PEORIA         CLOUDY    77  66  68 S17       29.80F
SPRINGFIELD    CLOUDY    77  68  73 S14       29.82F
TAYLORVILLE    NOT AVBL
$$

ILZ033-039-045-046-055>057-062-063-272300-
EAST-CENTRAL ILLINOIS

CITY           SKY/WX    TMP DP  RH WIND       PRES   REMARKS
CHAMPAIGN      CLOUDY    80  66  62 S22       29.87S HX  82
MATTOON        CLOUDY    75  68  78 S8        29.86F
$$

ILZ079-100>102-272300-
SOUTHWEST ILLINOIS

CITY           SKY/WX    TMP DP  RH WIND       PRES   REMARKS
ALTON          CLOUDY    75  68  78 S16       29.82F
BELLEVILLE     CLOUDY    74  74  99 E9        29.82F
CAHOKIA*       CLOUDY    78  69  73 S10       29.81F HX  80
$$

ILZ064>066-069>071-074>076-080>082-084>086-088>090-092>094-272300-
SOUTH-CENTRAL ILLINOIS

CITY           SKY/WX    TMP DP  RH WIND       PRES   REMARKS
CARBONDALE     TSTM      69  66  90 S6        29.88F
MARION         HVY RAIN  77  72  83 SW17G28   29.89R
MT. VERNON     CLOUDY    73  70  88 S3        29.89F
SALEM*         HVY RAIN  71  67  85 S9        29.88R
$$

ILZ067-068-072-073-078-083-087-091-272300-
SOUTHEAST ILLINOIS

CITY           SKY/WX    TMP DP  RH WIND       PRES   REMARKS
LAWRENCEVILLE  SUNNY     85  64  49 S22G30    29.89F HX  86
FLORA*         LGT RAIN  76  71  82 S15       29.90R
HARRISBURG*    MOSUNNY   81  71  71 S16       29.88S HX  84
ROBINSON*      CLOUDY    79  67  65 S15       29.89F HX  81
$$

ABBREVIATIONS USED IN REMARKS
   TC - TEMPERATURE IN CELSIUS
  WCI - WIND CHILL INDEX
   HX - HEAT INDEX
  VSB - VISIBILITY
$$






000
ASUS43 KLOT 271858
RWRIL

ILLINOIS REGIONAL WEATHER ROUNDUP
NATIONAL WEATHER SERVICE CHICAGO/ROMEOVILLE IL
200 PM CDT FRI MAY 27 2016

NOTE: "FAIR" INDICATES FEW OR NO CLOUDS BELOW 12,000 FEET WITH NO
SIGNIFICANT WEATHER AND/OR OBSTRUCTIONS TO VISIBILITY.

* THESE STATIONS ARE NOT UNDER NWS QUALITY CONTROL. THEY ALSO MAY NOT
  REPORT WEATHER SUCH AS PRECIPITATION OR FOG.

ILZ001-002-007-009-015-016-024-272000-
NORTHWEST ILLINOIS

CITY           SKY/WX    TMP DP  RH WIND       PRES   REMARKS
MOLINE         CLOUDY    74  66  76 S10       29.79F
$$

ILZ003-004-008-010-011-017-018-272000-
NORTH CENTRAL ILLINOIS

CITY           SKY/WX    TMP DP  RH WIND       PRES   REMARKS
ROCKFORD       NOT AVBL
$$

ILZ005-006-012>014-019>023-272000-
NORTHEAST ILLINOIS

CITY           SKY/WX    TMP DP  RH WIND       PRES   REMARKS
CHICAGO-OHARE  CLOUDY    81  63  54 S20G25    29.85F HX  82
CHICAGO-MIDWAY NOT AVBL
AURORA         NOT AVBL
WAUKEGAN       NOT AVBL
DUPAGE AIRPORT NOT AVBL
WHEELING       NOT AVBL
NORTHERLY ISL    N/A     74  63  68 S12         N/A
NORTHERLY ISL    N/A     74  63  68 S12         N/A
$$

LMZ740>746-272000-
SOUTHERN LAKE MICHIGAN

STATION/POSITION SKY/WX   TEMP    WIND        PRES    VSBY  WAVE
                          AIR SEA DIR/SP/G                  HT/PER
                          (F)     (DEG/KT/KT) (MB)    (MI)  (FT/S)
SOUTHERN BUOY              56 50  140/ 10/ 12 1012.9F         1/ 3
WILMETTE HARBOR            63 58  140/ 10/ 12   N/A           1
HARRISON CRIB              70     120/ 15/ 16   N/A
BURNHAM HARBOR             72     110/  5/ 14   N/A
CALUMET HARBOR             81     170/ 12/ 18 1011.4F
BURNS HARBOR               80     190/ 11/ 19 1013.2F
MICHIGAN CITY              78     180/ 13/ 16   N/A
MICHIGAN CITY 6N           69 60  210/  6/  8   N/A           1
ST. JOSEPH                 68 63   20/  2/  4   N/A           1
$$

ILZ025>027-034>036-040-047-049-050-058-095>099-272000-
WEST-CENTRAL ILLINOIS

CITY           SKY/WX    TMP DP  RH WIND       PRES   REMARKS
$$

ILZ028>032-037-038-041>044-048-051>054-059>061-272000-
CENTRAL ILLINOIS

CITY           SKY/WX    TMP DP  RH WIND       PRES   REMARKS
PEORIA         NOT AVBL
SPRINGFIELD    NOT AVBL
TAYLORVILLE    NOT AVBL
$$

ILZ033-039-045-046-055>057-062-063-272000-
EAST-CENTRAL ILLINOIS

CITY           SKY/WX    TMP DP  RH WIND       PRES   REMARKS
$$

ILZ079-100>102-272000-
SOUTHWEST ILLINOIS

CITY           SKY/WX    TMP DP  RH WIND       PRES   REMARKS
ALTON          CLOUDY    73  66  78 S14       29.86S
$$

ILZ064>066-069>071-074>076-080>082-084>086-088>090-092>094-272000-
SOUTH-CENTRAL ILLINOIS

CITY           SKY/WX    TMP DP  RH WIND       PRES   REMARKS
CARBONDALE     NOT AVBL
MARION         PTSUNNY   81  72  74 S14       29.90F HX  84
$$

ILZ067-068-072-073-078-083-087-091-272000-
SOUTHEAST ILLINOIS

CITY           SKY/WX    TMP DP  RH WIND       PRES   REMARKS
$$

ABBREVIATIONS USED IN REMARKS
   TC - TEMPERATURE IN CELSIUS
  WCI - WIND CHILL INDEX
   HX - HEAT INDEX
  VSB - VISIBILITY
$$






000
ASUS43 KLOT 271609
RWRIL

ILLINOIS REGIONAL WEATHER ROUNDUP
NATIONAL WEATHER SERVICE CHICAGO/ROMEOVILLE IL
1100 AM CDT FRI MAY 27 2016

NOTE: "FAIR" INDICATES FEW OR NO CLOUDS BELOW 12,000 FEET WITH NO
SIGNIFICANT WEATHER AND/OR OBSTRUCTIONS TO VISIBILITY.

* THESE STATIONS ARE NOT UNDER NWS QUALITY CONTROL. THEY ALSO MAY NOT
  REPORT WEATHER SUCH AS PRECIPITATION OR FOG.

ILZ001-002-007-009-015-016-024-271700-
NORTHWEST ILLINOIS

CITY           SKY/WX    TMP DP  RH WIND       PRES   REMARKS
MOLINE         PTSUNNY   74  66  76 SE15G23   29.80S
STERLING*      CLOUDY    78  65  63 S14G21    29.85F HX  80
SAVANNA*       PTSUNNY   75  66  74 S13       29.83F
$$

ILZ003-004-008-010-011-017-018-271700-
NORTH CENTRAL ILLINOIS

CITY           SKY/WX    TMP DP  RH WIND       PRES   REMARKS
ROCKFORD       CLOUDY    77  65  66 S12       29.89F
FREEPORT*      CLOUDY    75  64  68 SE16G24   29.87F
ROCHELLE*      CLOUDY    79  67  67 S18       29.88S HX  81
DE KALB*       CLOUDY    75  67  74 S14       29.89F
$$

ILZ005-006-012>014-019>023-271700-
NORTHEAST ILLINOIS

CITY           SKY/WX    TMP DP  RH WIND       PRES   REMARKS
CHICAGO-OHARE  PTSUNNY   74  66  76 S10       29.90R
CHICAGO-MIDWAY CLOUDY    77  64  64 S13       29.90S
AURORA         PTSUNNY   79  67  66 S14G20    29.90S HX  81
LANSING*       CLOUDY    75  65  70 S13       29.94R
JOLIET*        CLOUDY    77  68  72 S9        29.91S
WAUKEGAN       LGT RAIN  74  68  81 S14       29.89S
DUPAGE AIRPORT CLOUDY    77  66  68 S15       29.90S
KANKAKEE*      MOSUNNY   79  66  64 S15G22    29.93F HX  81
WHEELING       CLOUDY    73  67  81 S9        29.91S
MORRIS*        CLOUDY    78  64  61 S13       29.89F HX  80
ROMEOVILLE*    CLOUDY    76  64  65 S16       29.92R
NORTHERLY ISL    N/A     73  63  70 S8          N/A
NORTHERLY ISL    N/A     73  63  70 S8          N/A
$$

LMZ740>746-271700-
SOUTHERN LAKE MICHIGAN

STATION/POSITION SKY/WX   TEMP    WIND        PRES    VSBY  WAVE
                          AIR SEA DIR/SP/G                  HT/PER
                          (F)     (DEG/KT/KT) (MB)    (MI)  (FT/S)
SOUTHERN BUOY              54 50  170/ 10/ 12 1013.1R         1/ 3
WILMETTE HARBOR            63 58  140/  4/  6   N/A           1
HARRISON CRIB              70     190/ 12/ 12   N/A
BURNHAM HARBOR             74     180/  6/ 12   N/A
CALUMET HARBOR             72     200/ 10/ 14 1012.2F
BURNS HARBOR               74     190/ 12/ 17 1013.5F
MICHIGAN CITY              72     140/  9/ 11   N/A
MICHIGAN CITY 6N           66 59  180/  8/ 10   N/A           1
ST. JOSEPH                 68 62  160/  8/ 10   N/A           1
$$

ILZ025>027-034>036-040-047-049-050-058-095>099-271700-
WEST-CENTRAL ILLINOIS

CITY           SKY/WX    TMP DP  RH WIND       PRES   REMARKS
QUINCY         CLOUDY    72  67  84 S13G25    29.79F
GALESBURG*     PTSUNNY   70  65  85 SE15      29.81F
MACOMB*        CLOUDY    68  67  94 S14G22    29.85S
JACKSONVILLE*  CLOUDY    70  67  89 SE16G23   29.85F
PITTSFIELD*    CLOUDY    70  67  91 S14       29.84F
$$

ILZ028>032-037-038-041>044-048-051>054-059>061-271700-
CENTRAL ILLINOIS

CITY           SKY/WX    TMP DP  RH WIND       PRES   REMARKS
PONTIAC        CLOUDY    79  67  67 S18G26    29.91F HX  81
BLOOMINGTON    LGT RAIN  74  67  78 S22G31    29.91F
DECATUR        LGT RAIN  70  64  81 S14G23    29.92F
PEORIA         CLOUDY    73  65  75 S14       29.86F
LACON*         CLOUDY    74  64  69 S15       29.86F
LINCOLN*       LGT RAIN  73  67  83 S17G24    29.89F
SPRINGFIELD    LGT RAIN  72  67  84 S15G24    29.87F
TAYLORVILLE    CLOUDY    70  66  88 S16       29.90F
$$

ILZ033-039-045-046-055>057-062-063-271700-
EAST-CENTRAL ILLINOIS

CITY           SKY/WX    TMP DP  RH WIND       PRES   REMARKS
CHAMPAIGN      LGT RAIN  75  63  66 S21       29.94R
RANTOUL*       MOSUNNY   78  66  68 S17G24    29.94R HX  80
MATTOON        CLOUDY    72  63  73 S10       29.94S
PARIS*         MOSUNNY   78  67  68 S10       29.96F HX  80
$$

ILZ079-100>102-271700-
SOUTHWEST ILLINOIS

CITY           SKY/WX    TMP DP  RH WIND       PRES   REMARKS
ALTON          DRIZZLE   68  68 100 SE15      29.88F
BELLEVILLE     LGT RAIN  68  68 100 E12       29.89F
CAHOKIA*       CLOUDY    72  68  87 SE14G25   29.87F
SPARTA*        LGT RAIN  68  67  97 SE9       29.93F
$$

ILZ064>066-069>071-074>076-080>082-084>086-088>090-092>094-271700-
SOUTH-CENTRAL ILLINOIS

CITY           SKY/WX    TMP DP  RH WIND       PRES   REMARKS
CARBONDALE     CLOUDY    69  66  90 SE6       29.93F
CAIRO*         CLOUDY    75  70  84 S10       29.94S
EFFINGHAM*     CLOUDY    72  69  92 SE7       29.97R
MARION         CLOUDY    72  70  94 SE6       29.95F
MT. VERNON     CLOUDY    68  63  83 CALM      29.96F
CENTRALIA*     RAIN      68  67  98 SE8       29.94F
SALEM*         HVY RAIN  68  66  93 SE5       29.96S
METROPOLIS*    CLOUDY    76  71  84 S8        29.96S
$$

ILZ067-068-072-073-078-083-087-091-271700-
SOUTHEAST ILLINOIS

CITY           SKY/WX    TMP DP  RH WIND       PRES   REMARKS
LAWRENCEVILLE  CLOUDY    78  69  73 S14       29.98S HX  80
FLORA*         DRIZZLE   74  68  82 S12       29.97R
FAIRFIELD*     CLOUDY    73  67  82 SE8       29.95S
HARRISBURG*    PTSUNNY   73  69  86 S8        29.96F
ROBINSON*      PTSUNNY   76  68  75 S10       29.97F
CARMI*         CLOUDY    74  69  84 S10       29.97S
$$

ABBREVIATIONS USED IN REMARKS
   TC - TEMPERATURE IN CELSIUS
  WCI - WIND CHILL INDEX
   HX - HEAT INDEX
  VSB - VISIBILITY
$$






000
ASUS43 KLOT 271303
RWRIL

ILLINOIS REGIONAL WEATHER ROUNDUP
NATIONAL WEATHER SERVICE CHICAGO/ROMEOVILLE IL
800 AM CDT FRI MAY 27 2016

NOTE: "FAIR" INDICATES FEW OR NO CLOUDS BELOW 12,000 FEET WITH NO
SIGNIFICANT WEATHER AND/OR OBSTRUCTIONS TO VISIBILITY.

* THESE STATIONS ARE NOT UNDER NWS QUALITY CONTROL. THEY ALSO MAY NOT
  REPORT WEATHER SUCH AS PRECIPITATION OR FOG.

ILZ001-002-007-009-015-016-024-271400-
NORTHWEST ILLINOIS

CITY           SKY/WX    TMP DP  RH WIND       PRES   REMARKS
MOLINE         CLOUDY    68  63  84 SE8       29.84R
STERLING*      LGT RAIN  67  62  84 SE6       29.88R
$$

ILZ003-004-008-010-011-017-018-271400-
NORTH CENTRAL ILLINOIS

CITY           SKY/WX    TMP DP  RH WIND       PRES   REMARKS
ROCKFORD       LGT RAIN  70  64  81 S7        29.90R
FREEPORT*      CLOUDY    65  61  85 CALM      29.90R
ROCHELLE*      CLOUDY    69  66  92 SE12      29.89S
DE KALB*       CLOUDY    68  66  94 S14       29.90R
$$

ILZ005-006-012>014-019>023-271400-
NORTHEAST ILLINOIS

CITY           SKY/WX    TMP DP  RH WIND       PRES   REMARKS
CHICAGO-OHARE  CLOUDY    71  65  81 S10       29.89R
CHICAGO-MIDWAY CLOUDY    71  63  75 S13       29.90R
AURORA         CLOUDY    69  65  86 S8        29.90R
LANSING*       PTSUNNY   69  64  82 S13       29.92S
WAUKEGAN       CLOUDY    72  66  81 S7        29.87S
DUPAGE AIRPORT CLOUDY    69  63  81 S14       29.89R
WHEELING       CLOUDY    70  64  81 S9        29.89S
MORRIS*        CLOUDY    71  65  80 S9        29.90R
NORTHERLY ISL    N/A     70  62  76 S14         N/A
NORTHERLY ISL    N/A     70  62  76 S14         N/A
$$

LMZ740>746-271400-
SOUTHERN LAKE MICHIGAN

STATION/POSITION SKY/WX   TEMP    WIND        PRES    VSBY  WAVE
                          AIR SEA DIR/SP/G                  HT/PER
                          (F)     (DEG/KT/KT) (MB)    (MI)  (FT/S)
SOUTHERN BUOY              54 50  150/  8/ 10 1011.9          1/11
WILMETTE HARBOR            60 57  180/  8/  8   N/A           1
HARRISON CRIB              68     180/ 13/ 13   N/A
BURNHAM HARBOR             71     210/  9/ 14   N/A
CALUMET HARBOR             68     160/  7/  9 1012.0R
MICHIGAN CITY              67     140/  9/ 11   N/A
MICHIGAN CITY 6N           63 58  170/  6/ 10   N/A           1
ST. JOSEPH                 64 61  150/  8/ 10   N/A           1
$$

ILZ025>027-034>036-040-047-049-050-058-095>099-271400-
WEST-CENTRAL ILLINOIS

CITY           SKY/WX    TMP DP  RH WIND       PRES   REMARKS
QUINCY         LGT RAIN  68  65  90 S12G22    29.83F
MACOMB*        LGT RAIN  66  65  96 S14       29.87S
PITTSFIELD*    CLOUDY    68  67  95 S10       29.86S
$$

ILZ028>032-037-038-041>044-048-051>054-059>061-271400-
CENTRAL ILLINOIS

CITY           SKY/WX    TMP DP  RH WIND       PRES   REMARKS
BLOOMINGTON    PTSUNNY   69  68  97 S12       29.93F
DECATUR          N/A     70  64  81 SE12      29.93F
PEORIA         CLOUDY    70  64  81 S10       29.89S
LINCOLN*       CLOUDY    70  67  90 S9        29.90F
SPRINGFIELD    CLOUDY    70  65  84 S13       29.90S
TAYLORVILLE    NOT AVBL
$$

ILZ033-039-045-046-055>057-062-063-271400-
EAST-CENTRAL ILLINOIS

CITY           SKY/WX    TMP DP  RH WIND       PRES   REMARKS
CHAMPAIGN      CLOUDY    69  64  84 S13       29.95S
MATTOON        CLOUDY    67  63  87 S10       29.97R
$$

ILZ079-100>102-271400-
SOUTHWEST ILLINOIS

CITY           SKY/WX    TMP DP  RH WIND       PRES   REMARKS
BELLEVILLE     LGT RAIN  66  66 100 E8        29.91R
CAHOKIA*       LGT RAIN  68  66  93 SE9       29.90S
SPARTA*        HVY RAIN  65  64  97 SE7       29.95R
$$

ILZ064>066-069>071-074>076-080>082-084>086-088>090-092>094-271400-
SOUTH-CENTRAL ILLINOIS

CITY           SKY/WX    TMP DP  RH WIND       PRES   REMARKS
CARBONDALE     TSTM      66  64  93 S6        29.97R FOG
CAIRO*         CLOUDY    67  66  96 CALM      29.95R
EFFINGHAM*     CLOUDY    67  66  97 E6        29.98R
MARION         CLOUDY    68  66  94 SE6       29.96S
MT. VERNON     CLOUDY    64  61  88 E5        29.96F
SALEM*         LGT RAIN  67  64  93 E6        29.95S
$$

ILZ067-068-072-073-078-083-087-091-271400-
SOUTHEAST ILLINOIS

CITY           SKY/WX    TMP DP  RH WIND       PRES   REMARKS
LAWRENCEVILLE  PTSUNNY   69  65  86 S8        29.98R
FLORA*         DRIZZLE   67  65  93 SE9       29.97S
HARRISBURG*    CLOUDY    67  66  95 CALM      29.97R
ROBINSON*      PTSUNNY   67  64  90 S9        29.99R
CARMI*         CLOUDY    68  66  92 SW3       29.97R
$$

ABBREVIATIONS USED IN REMARKS
   TC - TEMPERATURE IN CELSIUS
  WCI - WIND CHILL INDEX
   HX - HEAT INDEX
  VSB - VISIBILITY
$$






    US Dept of Commerce
    National Oceanic and Atmospheric Administration
    National Weather Service
    1325 East West Highway
    Silver Spring, MD 20910
    Page Author: NWS Internet Services Team
Disclaimer
Information Quality
Credits
Glossary
Privacy Policy
Freedom of Information Act (FOIA)
About Us
Career Opportunities